User: anonymous   Login
Location: Newark
(58.9986°N, 38.5006°E)
Time: 11:39:09
(UTC+00:00)
Language:

N. Korean satellite - Orbit

View from above orbital plane
View from above orbital plane
View from above satellite
View from above satellite

Ground track
Ground track

The orbit data is extracted from the following two-line orbital elements,

1 39026U 12072A   20025.54490248  .00000692  00000-0  27207-4 0  9996
2 39026  97.2177  26.6813 0038692  38.1189 322.2777 15.28296697395326
Epoch (UTC): 25 January 2020 13:04:39
Eccentricity: 0.0038692
inclination: 97.2177°
perigee height: 454 km
apogee height: 507 km
right ascension of ascending node: 26.6813°
argument of perigee: 38.1189°
revolutions per day: 15.28296697
mean anomaly at epoch: 322.2777°
orbit number at epoch: 39532

The dashed part of the orbit path shows where the satellite is in the earth's shadow,  

DLR